Карточка аэропорта UWKE

Внимание!
Информация на этой странице в стадии наполнения.
Если вы не увидели какой-то информации, или заметили неточность - пожалуйста сообщите нам!
Спасибо!
Команда RU-STAFF
Название аэропортаБегишево
Название аэропорта (англ.)Begishevo
Превышение643 ft. (196 m.)
Координаты55°33.882', 52°5.5500000000001'
Высота перехода700m
Эшелон переходаQFE>=742mm:FL040; QFE<742=>715:FL050; QFE<715:FL060
Коды ответчика1000
Зона ОрВДСамара РПИ (UWWW)
Данные METARUWKE 122100Z 25005MPS CAVOK 09/03 Q1003 R21/090070 NOSIG RMK QFE735/0981
Проноз погоды (TAF)UWKE 121952Z 1221/1321 25005G12MPS 9999 SCT040 TEMPO 1221/1306 28008G14MPS 3100 -SHRA BKN011CB BECMG 1306/1308 30006G12MPS TEMPO 1306/1315 6000 -SHRA BKN020CB
NOTAMshow/hide NOTAM
AWOS   TABLE

Информация о ВПП

ВПП Длина ВПП (м.) Покрытие Курс ВПП Частота ILS
032502Асфальтобетон34 
212502Асфальтобетон214109.9

Диспетчерские позиции

Позывной Наименование органа УВД Частота
UWKE_R_APPБегишево-Круг127.900
UWKE_TWRБегишево-Вышка121.200



Спутниковое изображение